Notices

What's New in latest Release from April 7th, 2021:

- Updated Glossary, including Speed of Maximum Gust, and Total Hourly Precipitation

- Updated national and regional climate services offices contacts and prices information

- Addition of station inventory lists for 1981-2010, 1971-2000, and 1961-1990 Normals.

If you haven't already, please take our survey and provide feedback about our website: https://eccc.sondage-survey.ca/f/LanguageSelection.aspx?s=442ca660-fcf1-47c0-95a9-59707d6fd709

Hourly Data Report for April 22, 2017

KENORA A
ONTARIO

49°47'18.000" N
94°21'47.000" W
409.70 m
6034076
71850
YQK

Download Data

Hourly Data (April 2017)
Hourly Data Report for April 22, 2017
TIME
LST
Temp Definition
°C
Dew Point Definition
°C
Rel Hum Definition
%
Precip. Amount Definition
mm

Wind Dir Definition
10's deg

Wind Spd Definition
km/h
Visibility Definition
km
Stn Press Definition
kPa
Hmdx Definition


Wind Chill Definition


Weather Definition


00:00 9.6 -0.8 48   27 9 24.1 97.19     Clear
01:00 6.8 0.0 62   22 6 24.1 97.17     LegendNANA
02:00 6.9 0.4 63   23 7 24.1 97.14     LegendNANA
03:00 7.0 0.7 64   23 5 24.1 97.12     Mostly Cloudy
04:00 7.0 0.7 64   26 7 24.1 97.09     LegendNANA
05:00 6.1 0.7 68   30 9 24.1 97.08     LegendNANA
06:00 5.4 0.6 71   36 9 24.1 97.07     Cloudy
07:00 5.7 1.6 75   36 5 19.3 97.07     Rain
08:00 6.0 2.8 80   33 9 19.3 97.05     LegendNANA
09:00 5.7 5.3 97   33 20 6.4 97.09     Rain Showers
10:00 5.0 4.3 95   31 18 8.1 97.13     Rain Showers
11:00 4.1 3.4 95   32 18 8.1 97.17     Rain Showers
12:00 2.4 1.8 96   35 19 4.8 97.24     Cloudy
13:00 2.9 1.9 93   33 14 6.4 97.25     Fog
14:00 3.1 1.9 92   34 16 8.1 97.25     Fog
15:00 2.9 1.0 87   36 19 9.7 97.23     Fog
16:00 2.9 0.6 85   1 18 9.7 97.24     Fog
17:00 1.7 -1.7 78   36 18 24.1 97.32     LegendNANA
18:00 1.2 -3.5 71   35 14 24.1 97.32     Mostly Cloudy
19:00 0.4 -4.8 68   35 16 24.1 97.32     LegendNANA
20:00 -0.5 -4.4 75   36 5 24.1 97.34   -2 LegendNANA
21:00 -0.9 -4.4 77   34 3 24.1 97.37   -2 Mainly Clear
22:00 -1.0 -4.2 79   34 7 24.1 97.40   -4 LegendNANA
23:00 -1.6 -5.6 74   36 12 24.1 97.47   -6 LegendNANA

Notes on Data Quality.

Legend

  • E = Estimated
  • M = Missing
  • NA = Not Available*
  • [empty] = Indicates an unobserved value
Date modified: